Location: Treviso
(45.6669°N, 12.2430°E)
Time: 23:03:08
(UTC+01:00)

ISS - Pass Details

Date: 10 November 2018
Orbit: 402 x 409 km, 51.6° (Epoch: 14 November)

Event Time Altitude Azimuth Distance (km) Brightness Sun altitude
Exits shadow 04:25:51 18° 60° (ENE) 1,082 -1.0 -27.6°
Drops below altitude 10° 04:26:59 10° 73° (ENE) 1,463 -0.1 -27.4°
Sets 04:29:13 0° 85° (E) 2,324 1.3 -27.0°
